Stations météo

réclame
Mon MeteoGroup
Edinburgh/Royal Botanic Garden , Grande-Bretagne (99180): Température de l'air & dewpoint: 17.09.2019 21:00:00 - 23.09.2019 21:00:00 (BST)Edinburgh/Royal Botanic Garden , Grande-Bretagne (99180): Température de l'air -20cm & Température de l'air -100cm: 17.09.2019 21:00:00 - 23.09.2019 21:00:00 (BST)Edinburgh/Royal Botanic Garden , Grande-Bretagne (99180): Quantités de précipitations: 17.09.2019 21:00:00 - 23.09.2019 21:00:00 (BST)
Date & Time tt [°C] td [°C] tt -20cm [°C] tt -100cm [°C] rr [mm]
23.09.2019 21:00:00 14,1 10,3 - - -
23.09.2019 20:00:00 13,3 10,0 - - 0,0
23.09.2019 19:00:00 15,9 9,7 - - 0,0
23.09.2019 18:00:00 16,1 9,0 - - 0,0
23.09.2019 17:00:00 17,0 8,8 - - 0,0
23.09.2019 16:00:00 17,8 8,7 - - 0,0
23.09.2019 15:00:00 17,2 10,2 - - 0,0
23.09.2019 14:00:00 18,6 9,9 - - 0,0
23.09.2019 13:00:00 16,7 11,3 - - 0,0
23.09.2019 12:00:00 15,8 11,1 - - 0,0
23.09.2019 11:00:00 16,2 12,8 - - 0,0
23.09.2019 10:00:00 14,5 14,3 14,5 14,4 0,0
23.09.2019 09:00:00 13,5 13,4 - - 0,0
23.09.2019 08:00:00 12,7 12,5 - - 0,0
23.09.2019 07:00:00 12,9 12,6 - - 0,0
23.09.2019 06:00:00 13,5 13,3 - - 0,0
23.09.2019 05:00:00 13,6 13,4 - - 0,0
23.09.2019 04:00:00 13,6 13,4 - - 0,0
23.09.2019 03:00:00 13,6 13,4 - - 0,0
23.09.2019 02:00:00 13,5 13,3 - - 0,0
23.09.2019 01:00:00 13,5 13,2 - - 0,4
23.09.2019 00:00:00 13,5 13,2 - - 2,2
22.09.2019 23:00:00 13,5 13,2 - - 7,8
22.09.2019 22:00:00 13,5 13,3 - - 6,8
22.09.2019 21:00:00 13,5 13,2 - - 2,0
22.09.2019 20:00:00 13,5 13,1 - - 0,6
22.09.2019 19:00:00 13,7 13,2 - - 0,2
22.09.2019 18:00:00 13,7 13,2 - - 0,4
22.09.2019 17:00:00 13,9 13,2 - - 0,0
22.09.2019 16:00:00 14,1 13,4 - - 0,0
22.09.2019 15:00:00 13,8 13,2 - - 0,2
22.09.2019 14:00:00 13,8 13,0 - - 0,6
22.09.2019 13:00:00 14,0 12,9 - - 0,0
22.09.2019 12:00:00 13,6 12,4 - - 0,0
22.09.2019 11:00:00 13,7 12,3 - - 0,0
22.09.2019 10:00:00 13,2 12,4 14,5 14,5 0,0
22.09.2019 09:00:00 12,5 11,9 - - 0,0
22.09.2019 08:00:00 12,4 12,1 - - 0,0
22.09.2019 07:00:00 12,1 11,5 - - 0,0
22.09.2019 06:00:00 12,2 11,4 - - 0,0
22.09.2019 05:00:00 11,7 11,1 - - 0,0
22.09.2019 04:00:00 11,6 11,0 - - 0,0
22.09.2019 03:00:00 11,7 11,1 - - 0,0
22.09.2019 02:00:00 12,0 11,2 - - 0,0
22.09.2019 01:00:00 12,2 11,3 - - 0,0
22.09.2019 00:00:00 12,7 11,6 - - 0,0
21.09.2019 23:00:00 11,9 10,5 - - 0,0
21.09.2019 22:00:00 13,0 11,0 - - 0,0
21.09.2019 21:00:00 14,0 11,7 - - 0,0
21.09.2019 20:00:00 15,3 11,4 - - 0,0
21.09.2019 19:00:00 17,4 11,8 - - 0,0
21.09.2019 18:00:00 17,7 11,5 - - 0,0
21.09.2019 17:00:00 19,4 12,0 - - 0,0
21.09.2019 16:00:00 19,2 12,6 - - 0,0
21.09.2019 15:00:00 18,1 11,8 - - 0,0
21.09.2019 14:00:00 20,4 10,3 - - 0,0
21.09.2019 13:00:00 18,9 10,5 - - 0,0
21.09.2019 12:00:00 18,6 10,0 - - 0,0
21.09.2019 11:00:00 17,2 10,4 - - 0,0
21.09.2019 10:00:00 15,2 10,5 14,5 14,5 0,0
21.09.2019 09:00:00 13,2 9,3 - - 0,0
21.09.2019 08:00:00 11,1 8,2 - - 0,0
21.09.2019 07:00:00 10,2 8,6 - - 0,0
21.09.2019 06:00:00 10,7 9,7 - - 0,2
21.09.2019 05:00:00 9,8 9,0 - - 0,0
21.09.2019 04:00:00 10,7 10,0 - - 0,0
21.09.2019 03:00:00 10,6 9,6 - - 0,0
21.09.2019 02:00:00 11,8 10,9 - - 0,0
21.09.2019 01:00:00 10,7 10,0 - - 0,0
21.09.2019 00:00:00 11,5 10,9 - - 0,0
20.09.2019 23:00:00 12,7 12,1 - - 0,0
20.09.2019 22:00:00 13,0 12,5 - - 0,0
20.09.2019 21:00:00 11,5 10,4 - - 0,0
20.09.2019 20:00:00 13,0 11,3 - - 0,0
20.09.2019 19:00:00 14,5 11,8 - - 0,0
20.09.2019 18:00:00 16,3 9,4 - - 0,0
20.09.2019 17:00:00 17,7 8,3 - - 0,0
20.09.2019 16:00:00 17,9 8,7 - - 0,0
20.09.2019 15:00:00 18,4 9,5 - - 0,0
20.09.2019 14:00:00 18,5 9,6 - - 0,0
20.09.2019 13:00:00 18,6 11,3 - - 0,0
20.09.2019 12:00:00 17,6 10,4 - - 0,0
20.09.2019 11:00:00 16,6 11,0 - - 0,0
20.09.2019 10:00:00 13,4 11,6 14,7 14,7 0,0
20.09.2019 09:00:00 10,3 10,2 - - 0,0
20.09.2019 08:00:00 7,7 7,5 - - 0,0
20.09.2019 07:00:00 6,9 6,6 - - 0,0
20.09.2019 06:00:00 7,4 7,0 - - 0,0
20.09.2019 05:00:00 7,8 7,2 - - 0,0
20.09.2019 04:00:00 9,0 8,4 - - 0,0
20.09.2019 03:00:00 9,4 8,5 - - 0,0
20.09.2019 02:00:00 10,6 9,5 - - 0,0
20.09.2019 01:00:00 11,2 9,4 - - 0,0
20.09.2019 00:00:00 11,5 9,5 - - 0,0
19.09.2019 23:00:00 12,2 10,0 - - 0,0
19.09.2019 22:00:00 12,6 10,0 - - 0,0
19.09.2019 21:00:00 13,2 10,1 - - 0,0
19.09.2019 20:00:00 14,9 10,2 - - 0,0
19.09.2019 19:00:00 16,4 10,1 - - 0,0
19.09.2019 18:00:00 17,9 10,7 - - 0,0
19.09.2019 17:00:00 18,9 10,0 - - 0,0
19.09.2019 16:00:00 19,8 11,6 - - 0,0
19.09.2019 15:00:00 18,9 11,5 - - 0,0
19.09.2019 14:00:00 16,4 11,9 - - 0,0
19.09.2019 13:00:00 16,6 12,1 - - 0,0
19.09.2019 12:00:00 15,3 11,8 - - 0,0
19.09.2019 11:00:00 14,4 11,3 - - 0,0
19.09.2019 10:00:00 13,8 11,0 14,5 14,7 0,0
19.09.2019 09:00:00 13,2 11,1 - - 0,0
19.09.2019 08:00:00 12,5 11,0 - - 0,0
19.09.2019 07:00:00 12,3 11,1 - - 0,0
19.09.2019 06:00:00 11,9 11,2 - - 0,0
19.09.2019 05:00:00 11,5 11,0 - - 0,0
19.09.2019 04:00:00 10,3 9,9 - - 0,0
19.09.2019 03:00:00 10,7 9,8 - - 0,0
19.09.2019 02:00:00 11,2 10,2 - - 0,0
19.09.2019 01:00:00 11,8 10,7 - - 0,0
19.09.2019 00:00:00 12,1 10,8 - - 0,0
18.09.2019 23:00:00 12,5 11,0 - - 0,0
18.09.2019 22:00:00 13,3 11,2 - - 0,0
18.09.2019 21:00:00 14,5 11,6 - - 0,0
18.09.2019 20:00:00 15,0 11,7 - - 0,0
18.09.2019 19:00:00 15,2 11,4 - - 0,0
18.09.2019 18:00:00 16,1 11,4 - - 0,0
18.09.2019 17:00:00 16,3 11,1 - - 0,0
18.09.2019 16:00:00 16,2 10,8 - - 0,0
18.09.2019 15:00:00 16,3 11,0 - - 0,0
18.09.2019 14:00:00 16,0 10,5 - - 0,0
18.09.2019 13:00:00 15,8 9,9 - - 0,0
18.09.2019 12:00:00 14,5 9,7 - - 0,0
18.09.2019 11:00:00 14,1 9,1 - - 0,0
18.09.2019 10:00:00 11,9 6,6 14,4 14,7 0,0
18.09.2019 09:00:00 11,2 6,7 - - 0,0
18.09.2019 08:00:00 10,2 7,1 - - 0,0
18.09.2019 07:00:00 9,9 6,7 - - 0,0
18.09.2019 06:00:00 9,8 6,6 - - 0,0
18.09.2019 05:00:00 9,8 6,8 - - 0,0
18.09.2019 04:00:00 9,8 6,8 - - 0,0
18.09.2019 03:00:00 9,4 7,0 - - 0,0
18.09.2019 02:00:00 9,5 6,7 - - 0,0
18.09.2019 01:00:00 9,3 6,5 - - 0,0
18.09.2019 00:00:00 8,9 6,6 - - 0,0
17.09.2019 23:00:00 8,7 6,4 - - 0,0
17.09.2019 22:00:00 9,2 5,7 - - 0,0
17.09.2019 21:00:00 10,5 6,0 - - 0,0

tt = Température de l'air
td = dewpoint
tt -20cm = Température de l'air -20cm
tt -100cm = Température de l'air -100cm
rr = Quantités de précipitations

stations d'obs. à proximité